(163919) = 2003 SX259 = 2003 UZ283

Discovered at Kitt Peak on 2003-09-28 by Spacewatch.

Orbit

Orbit type: Main Belt

Note: WebGL enabled browser required.

epoch2023-09-13.0
epoch JD2460200.5
perihelion date2020-03-21.63590
perihelion JD2458930.13590
argument of perihelion (°)316.95114
ascending node (°)30.33100
inclination (°)8.40740
eccentricity0.1568303
perihelion distance (AU)2.1937951
Tisserand w.r.t. Jupiter3.4
ΔV w.r.t. Earth (km/sec)9.6
semimajor axis (AU)2.6018428
mean anomaly (°)298.33931
mean daily motion (°/day)0.23484550
aphelion distance (AU)3.010
period (years)4.2
P-vector [x]0.97176142
P-vector [y]-0.15647385
P-vector [z]-0.17662295
Q-vector [x]0.22411610
Q-vector [y]0.84625234
Q-vector [z]0.48335178
absolute magnitude15.77
phase slope0.15
uncertainty0
referenceMPEC 2024-A34
observations used633
oppositions16
arc length (days)8616
first opposition used1999
last opposition used2023
residual rms (arc-secs)0.73
perturbers coarse indicatorM-v
perturbers precise indicator003Ek
first observation date used1999-11-09.0
last observation date used2023-06-12.0
computer nameMPCLINUX
JD of orbit computation2456937.339626
perihelion JD uncertainty (days)7.3519E-05
argument of perihelion uncertainty (°)2.7363E-05
ascending node uncertainty (°)2.3596E-05
inclination uncertainty (°)6.0543E-06
eccentricity uncertainty 5.6233E-08
perihelion distance uncertainty (AU)1.5521E-07
Minimum Orbit Intersection Distances (in AU)
for orbit epoch: 2460200.5, reference: E2024-A34
Mercury1.80541
Venus1.46741
Earth1.19596
Mars0.81358
Jupiter2.42932
Saturn6.29454
Uranus15.4504
Neptune27.4356

Observations

645 total observations over interval: 1993 03 17.19062 – 2023 06 12.378973
These data are available for download (format description).

Date (UT) J2000 RA J2000 Dec Magn Location Ref
1993 03 17.19062 12 40 47.75 +01 34 32.3 18.6   809 – European Southern Observatory, La Silla MPS 91015
1999 11 09.31139 04 01 21.55 +26 59 56.7 18.8 R 703 – Catalina Sky Survey MPS 90552
1999 11 09.32361 04 01 20.75 +26 59 57.5 18.2 R 703 – Catalina Sky Survey MPS 90552
1999 11 09.33580 04 01 20.02 +26 59 58.7 18.8 R 703 – Catalina Sky Survey MPS 90552
1999 11 09.34814 04 01 19.14 +27 00 00.0 18.7 R 703 – Catalina Sky Survey MPS 90552
1999 12 13.23687 03 25 57.67 +26 48 32.0 19.0 R 703 – Catalina Sky Survey MPS 90552
1999 12 13.24905 03 25 57.05 +26 48 31.7 19.4 R 703 – Catalina Sky Survey MPS 90552
1999 12 13.26122 03 25 56.51 +26 48 30.2 19.4 R 703 – Catalina Sky Survey MPS 90552
1999 12 13.27338 03 25 55.92 +26 48 29.1 18.8 R 703 – Catalina Sky Survey MPS 90552
2003 09 20.37848 02 29 01.79 +12 26 57.1 18.9 R 699 – Lowell Observatory-LONEOS MPS 87364
2003 09 20.39183 02 29 01.49 +12 26 59.6   699 – Lowell Observatory-LONEOS MPS 87364
2003 09 20.40519 02 29 01.16 +12 27 00.5   699 – Lowell Observatory-LONEOS MPS 87364
2003 09 20.41848 02 29 00.89 +12 27 01.8   699 – Lowell Observatory-LONEOS MPS 87364
2003 09 21.37204 02 28 40.04 +12 29 05.7 19.4   704 – Lincoln Laboratory ETS, New Mexico MPS 87364
2003 09 21.38405 02 28 39.74 +12 29 07.0 20.0   704 – Lincoln Laboratory ETS, New Mexico MPS 87364
2003 09 21.39630 02 28 39.51 +12 29 09.6 19.9   704 – Lincoln Laboratory ETS, New Mexico MPS 87364
2003 09 21.40849 02 28 39.13 +12 29 09.4 20.0   704 – Lincoln Laboratory ETS, New Mexico MPS 87364
2003 09 21.42060 02 28 38.71 +12 29 10.4 19.6   704 – Lincoln Laboratory ETS, New Mexico MPS 87364
2003 09 28.42230 02 25 11.58 +12 41 12.4 19.1 V 691 – Steward Observatory, Kitt Peak-Spacewatch MPS 87124
2003 09 28.45027 02 25 10.51 +12 41 14.6 19.1 V 691 – Steward Observatory, Kitt Peak-Spacewatch MPS 87124
2003 09 28.47817 02 25 09.44 +12 41 16.9 19.0 V 691 – Steward Observatory, Kitt Peak-Spacewatch MPS 87124
2003 09 29.29470 02 24 39.69 +12 42 21.3 18.7   704 – Lincoln Laboratory ETS, New Mexico MPS 87124
2003 09 29.30899 02 24 39.13 +12 42 22.4 19.0   704 – Lincoln Laboratory ETS, New Mexico MPS 87124
2003 09 29.32211 02 24 38.61 +12 42 23.6 19.1   704 – Lincoln Laboratory ETS, New Mexico MPS 87124
2003 09 29.33548 02 24 38.10 +12 42 24.1 19.3   704 – Lincoln Laboratory ETS, New Mexico MPS 87124
2003 09 29.34872 02 24 37.53 +12 42 25.3 19.2   704 – Lincoln Laboratory ETS, New Mexico MPS 87124
2003 10 19.35808 02 07 24.16 +12 50 13.4 18.4 V 691 – Steward Observatory, Kitt Peak-Spacewatch MPS 89531
2003 10 19.38606 02 07 22.38 +12 50 12.7 18.5 V 691 – Steward Observatory, Kitt Peak-Spacewatch MPS 89531
2003 10 19.41414 02 07 20.58 +12 50 12.0 18.5 V 691 – Steward Observatory, Kitt Peak-Spacewatch MPS 89531
2003 10 21.21989 02 05 29.55 +12 49 29.2 18.1 R 699 – Lowell Observatory-LONEOS MPS 89531
2003 10 21.23983 02 05 28.30 +12 49 29.4   699 – Lowell Observatory-LONEOS MPS 89531
2003 10 21.25981 02 05 26.97 +12 49 28.7   699 – Lowell Observatory-LONEOS MPS 89531
2003 10 21.27987 02 05 25.67 +12 49 28.1   699 – Lowell Observatory-LONEOS MPS 89531
2003 10 21.28030 02 05 25.63 +12 49 28.4 18.3   704 – Lincoln Laboratory ETS, New Mexico MPS 89531
2003 10 21.29326 02 05 24.81 +12 49 27.8 18.7   704 – Lincoln Laboratory ETS, New Mexico MPS 89531
2003 10 21.30584 02 05 23.98 +12 49 27.7 18.5   704 – Lincoln Laboratory ETS, New Mexico MPS 89531
2003 10 21.31858 02 05 23.15 +12 49 27.0 18.3   704 – Lincoln Laboratory ETS, New Mexico MPS 89531
2003 10 21.33093 02 05 22.37 +12 49 26.9 18.2   704 – Lincoln Laboratory ETS, New Mexico MPS 89531
2003 10 21.36937 02 05 19.93 +12 49 25.9 17.9   644 – Palomar Mountain/NEAT MPS 89531
2003 10 21.39606 02 05 18.21 +12 49 25.1 17.7   644 – Palomar Mountain/NEAT MPS 89531
2003 10 21.41726 02 05 16.85 +12 49 24.4 17.7   644 – Palomar Mountain/NEAT MPS 89531
2003 10 24.35096 02 02 14.10 +12 47 57.9 18.8   608 – Haleakala-AMOS MPS 89531
2003 10 24.36170 02 02 13.40 +12 47 57.5 18.7   608 – Haleakala-AMOS MPS 89531
2003 10 24.37189 02 02 12.74 +12 47 56.9 19.1   608 – Haleakala-AMOS MPS 89531
2003 10 25.21119 02 01 20.27 +12 47 27.2 18.3 V 691 – Steward Observatory, Kitt Peak-Spacewatch MPC 50562
2003 10 25.25112 02 01 17.69 +12 47 25.9 18.8 V 691 – Steward Observatory, Kitt Peak-Spacewatch MPC 50562
2003 10 25.27907 02 01 15.87 +12 47 24.9 18.4 V 691 – Steward Observatory, Kitt Peak-Spacewatch MPC 50562
2003 10 25.28886 02 01 15.24 +12 47 24.7 18.2 V 291 – LPL/Spacewatch II MPC 50562
2003 10 25.31253 02 01 13.70 +12 47 23.8 18.2 V 291 – LPL/Spacewatch II MPC 50562
2003 10 25.33637 02 01 12.15 +12 47 22.8 18.6 V 291 – LPL/Spacewatch II MPC 50562
2003 10 26.28071 02 00 13.24 +12 46 48.6 17.7 V 703 – Catalina Sky Survey MPS 89531
2003 10 26.28964 02 00 12.65 +12 46 49.2 18.5 V 291 – LPL/Spacewatch II MPS 89531
2003 10 26.29429 02 00 12.28 +12 46 48.8 18.0 V 703 – Catalina Sky Survey MPS 89531
2003 10 26.30785 02 00 11.43 +12 46 47.8 17.6 V 703 – Catalina Sky Survey MPS 89531
2003 10 26.31352 02 00 11.14 +12 46 48.2 18.1 V 291 – LPL/Spacewatch II MPS 89531
2003 10 26.32142 02 00 10.61 +12 46 47.8 17.7 V 703 – Catalina Sky Survey MPS 89531
2003 10 26.33703 02 00 09.57 +12 46 47.4 18.3 V 291 – LPL/Spacewatch II MPS 89531
2003 10 28.20963 01 58 13.33 +12 45 37.7 18.1   704 – Lincoln Laboratory ETS, New Mexico MPS 89531
2003 10 28.22198 01 58 12.52 +12 45 37.6 18.3   704 – Lincoln Laboratory ETS, New Mexico MPS 89531
2003 10 28.23470 01 58 11.72 +12 45 36.9 18.4   704 – Lincoln Laboratory ETS, New Mexico MPS 89531
2003 10 28.24734 01 58 10.92 +12 45 36.0 18.5   704 – Lincoln Laboratory ETS, New Mexico MPS 89531
2003 10 28.25915 01 58 10.13 +12 45 36.3 18.4   704 – Lincoln Laboratory ETS, New Mexico MPS 89531
2003 10 29.21701 01 57 11.07 +12 45 00.3 18.7   704 – Lincoln Laboratory ETS, New Mexico MPS 89531
2003 10 29.22934 01 57 10.30 +12 44 59.4 18.6   704 – Lincoln Laboratory ETS, New Mexico MPS 89531
2003 10 29.24139 01 57 09.50 +12 44 59.4 18.4   704 – Lincoln Laboratory ETS, New Mexico MPS 89531
2003 10 29.25349 01 57 08.74 +12 44 58.9 18.6   704 – Lincoln Laboratory ETS, New Mexico MPS 89531
2003 11 01.25967 01 54 05.93 +12 43 04.1 17.8   704 – Lincoln Laboratory ETS, New Mexico MPS 90552
2003 11 01.27235 01 54 05.15 +12 43 04.0 18.5   704 – Lincoln Laboratory ETS, New Mexico MPS 90552
2003 11 01.28515 01 54 04.39 +12 43 03.3 18.4   704 – Lincoln Laboratory ETS, New Mexico MPS 90552
2003 11 01.29833 01 54 03.58 +12 43 02.6 18.2   704 – Lincoln Laboratory ETS, New Mexico MPS 90552
2003 11 01.31061 01 54 02.78 +12 43 02.1 18.6   704 – Lincoln Laboratory ETS, New Mexico MPS 90552
2003 11 03.54466 01 51 50.62 +12 41 41.2 20.3   608 – Haleakala-AMOS MPS 89531
2003 11 03.55607 01 51 49.98 +12 41 42.9 20.7   608 – Haleakala-AMOS MPS 89531
2003 11 03.56679 01 51 49.45 +12 41 42.0 20.2   608 – Haleakala-AMOS MPS 89531
2003 11 18.15868 01 39 46.37 +12 38 02.7 19.1   644 – Palomar Mountain/NEAT MPS 91015
2003 11 18.17941 01 39 45.49 +12 38 02.9 18.9   644 – Palomar Mountain/NEAT MPS 91015
2003 11 18.20027 01 39 44.65 +12 38 03.3 18.8   644 – Palomar Mountain/NEAT MPS 91015
2003 11 18.21630 01 39 43.67 +12 38 01.8 18.8 R 699 – Lowell Observatory-LONEOS MPS 92751
2003 11 18.23614 01 39 43.10 +12 38 03.9   699 – Lowell Observatory-LONEOS MPS 92751
2003 11 18.25604 01 39 42.26 +12 38 03.4   699 – Lowell Observatory-LONEOS MPS 92751
2003 11 18.27592 01 39 41.48 +12 38 05.1   699 – Lowell Observatory-LONEOS MPS 92751
2003 11 24.18841 01 36 21.53 +12 41 05.8 19.0   704 – Lincoln Laboratory ETS, New Mexico MPS 91846
2003 11 24.20243 01 36 21.14 +12 41 06.5 19.2   704 – Lincoln Laboratory ETS, New Mexico MPS 91846
2003 11 24.21473 01 36 20.73 +12 41 07.8 19.2   704 – Lincoln Laboratory ETS, New Mexico MPS 91846
2003 11 24.22733 01 36 20.34 +12 41 07.7 19.4   704 – Lincoln Laboratory ETS, New Mexico MPS 91846
2003 11 24.23962 01 36 20.00 +12 41 09.2 19.6   704 – Lincoln Laboratory ETS, New Mexico MPS 91846
2003 12 13.10399 01 32 55.95 +13 16 25.7 19.2 V 703 – Catalina Sky Survey MPS 93715
2003 12 13.12119 01 32 56.04 +13 16 28.5 18.5 V 703 – Catalina Sky Survey MPS 93715
